This is the latest recevied weather packets stored in our database for station/object PA0HHN. If no packets are shown the sender has not sent any weather packets the latest 10 day(s).
| Time | Temp. | Humidity | Pressure | Rain* | Wind** | Luminosity | Snow |
|---|---|---|---|---|---|---|---|
| 1778067902 | 10° C | 79% | 1003.8 hPa | - | - | - | - |
| 1778067001 | 10° C | 78% | 1003.6 hPa | - | - | - | - |
| 1778066102 | 10° C | 78% | 1003.5 hPa | - | - | - | - |
| 1778065202 | 10° C | 78% | 1003.3 hPa | - | - | - | - |
| 1778064300 | 10° C | 78% | 1003.6 hPa | - | - | - | - |
| 1778063401 | 10° C | 77% | 1003.4 hPa | - | - | - | - |
| 1778062502 | 10° C | 81% | 1003.3 hPa | - | - | - | - |
| 1778061600 | 10° C | 82% | 1003 hPa | - | - | - | - |
| 1778056201 | 10° C | 83% | 1002.6 hPa | - | - | - | - |
| 1778053502 | 10° C | 84% | 1002.5 hPa | - | - | - | - |
| 1778050802 | 8.89° C | 88% | 1002.3 hPa | - | - | - | - |
| 1778049902 | 8.89° C | 89% | 1002.3 hPa | - | - | - | - |
| 1778049002 | 8.89° C | 91% | 1002.3 hPa | - | - | - | - |
| 1778048100 | 8.89° C | 90% | 1002.3 hPa | - | - | - | - |
| 1778047202 | 8.89° C | 91% | 1002.3 hPa | - | - | - | - |
| 1778045401 | 8.89° C | 91% | 1002 hPa | - | - | - | - |
| 1778044501 | 8.89° C | 92% | 1002.1 hPa | - | - | - | - |
| 1778043602 | 8.89° C | 91% | 1002.1 hPa | - | - | - | - |
| 1778042702 | 8.89° C | 91% | 1001.9 hPa | - | - | - | - |
| 1778041802 | 8.89° C | 91% | 1001.9 hPa | - | - | - | - |
| 1778040901 | 10° C | 90% | 1002 hPa | - | - | - | - |
| 1778040002 | 10° C | 89% | 1002.1 hPa | - | - | - | - |
| 1778039102 | 10° C | 87% | 1001.8 hPa | - | - | - | - |
| 1778038201 | 10° C | 88% | 1002 hPa | - | - | - | - |
| 1778037301 | 10° C | 89% | 1002 hPa | - | - | - | - |
* Rain since midnight (hover to see other rain measurements)
** Current wind speed in m/s (hover to see current wind gust speed)